This demonstration page uses our WeatherBlox Daily Observations layout. Learn more.

Left ArrowRight Arrow

39.95238, -75.16362

Hourly Observations for August 30, 2016

Temp ( °F °C ) Dew Point ( °F °C ) Humidity (%) Winds ( mph kmh ) Pressure ( in mb ) Visibility ( mi km ) Precip ( " mm )
12:54 am 00:54 Clear 77 25 58 14.4 52 52 NE 9 15 30.14 1021 10 16 0.00 0.00
1:54 am 01:54 Clear 76 24.4 58 14.4 54 54 N 8 13 30.12 1020 10 16 0.00 0.00
2:54 am 02:54 Clear 74 23.3 59 15 60 60 N 6 9 30.12 1020 10 16 0.00 0.00
3:54 am 03:54 Clear 74 23.3 58 14.4 57 57 NNE 7 11 30.13 1020 10 16 0.00 0.00
4:54 am 04:54 Clear 73 22.8 57 13.9 57 57 NE 9 15 30.13 1020 10 16 0.00 0.00
5:54 am 05:54 Mostly Clear 71 21.7 58 14.4 63 63 NE 7 11 30.14 1021 10 16 0.00 0.00
6:54 am 06:54 Partly Cloudy 71 21.7 58 14.4 63 63 NE 8 13 30.14 1021 10 16 0.00 0.00
7:54 am 07:54 Partly Cloudy 74 23.3 60 15.6 62 62 ENE 10 17 30.15 1021 10 16 0.00 0.00
8:54 am 08:54 Mostly Sunny 77 25 63 17.2 62 62 ENE 9 15 30.16 1021 10 16 0.00 0.00
9:54 am 09:54 Partly Cloudy 80 26.7 64 17.8 58 58 VRB 5 7 30.16 1021 10 16 0.00 0.00
10:54 am 10:54 Partly Cloudy 82 27.8 63 17.2 53 53 E 5 7 30.15 1021 10 16 0.00 0.00
11:54 am 11:54 Partly Cloudy 85 29.4 64 17.8 50 50 E 6 9 30.13 1020 10 16 0.00 0.00
12:54 pm 12:54 Partly Cloudy 88 31.1 61 16.1 40 40 VRB 5 7 30.11 1020 10 16 0.00 0.00
1:54 pm 13:54 Mostly Sunny 87 30.6 60 15.6 40 40 SSE 7 11 30.09 1019 10 16 0.00 0.00
2:54 pm 14:54 Mostly Sunny 89 31.7 59 15 36 36 VRB 3 6 30.06 1018 10 16 0.00 0.00
3:54 pm 15:54 Mostly Sunny 88 31.1 58 14.4 36 36 S 5 7 30.04 1017 10 16 0.00 0.00
4:54 pm 16:54 Mostly Sunny 89 31.7 55 12.8 31 31 WSW 8 13 30.04 1017 10 16 0.00 0.00
5:54 pm 17:54 Partly Cloudy 88 31.1 57 13.9 35 35 NNW 8 13 30.03 1017 10 16 0.00 0.00
6:54 pm 18:54 Partly Cloudy 87 30.6 56 13.3 35 35 WNW 9 15 30.02 1017 10 16 0.00 0.00
7:54 pm 19:54 Partly Cloudy 81 27.2 69 20.6 67 67 Calm 30.02 1017 10 16 0.00 0.00
8:54 pm 20:54 Partly Cloudy 79 26.1 70 21.1 74 74 SSE 7 11 30.04 1017 10 16 0.00 0.00
9:54 pm 21:54 Partly Cloudy 78 25.6 71 21.7 79 79 S 5 7 30.05 1018 10 16 0.00 0.00
10:54 pm 22:54 Partly Cloudy 76 24.4 71 21.7 85 85 ESE 5 7 30.05 1018 10 16 0.00 0.00
11:54 pm 23:54 Mostly Cloudy 75 23.9 71 21.7 88 88 E 5 7 30.05 1018 10 16 0.00 0.00

Powered by AerisWeather